Location: Newark
(48.6308°N, 2.9839°W)
Time: 03:31:11
(UTC+00:00)

N. Korean satellite - Visible Passes

Search period start: 15 November 2019 00:00
Search period end: 25 November 2019 00:00
Orbit: 456 x 506 km, 97.2° (Epoch: 14 November)

Date Brightness Start Highest point End Pass type
(mag) Time Alt. Az. Time Alt. Az. Time Alt. Az.
15 Nov 6.6 06:16:36 10° NNE 06:20:21 87° WNW 06:24:03 10° SSW visible
15 Nov 10.2 18:31:26 10° WSW 18:32:47 12° W 18:34:09 10° WNW visible
16 Nov 7.8 05:51:19 10° NNE 05:54:56 46° E 05:58:30 10° S visible
16 Nov 9.4 18:04:17 10° SW 18:07:09 22° W 18:10:04 10° NW visible
17 Nov 9.2 05:26:19 10° NE 05:29:25 24° E 05:32:29 10° SSE visible
17 Nov 8.1 17:38:10 10° S 17:41:37 41° W 17:45:08 10° NNW visible
18 Nov 10.1 05:01:57 10° ENE 05:03:49 13° E 05:05:40 10° ESE visible
18 Nov 6.7 06:33:54 10° N 06:37:33 54° WNW 06:41:09 10° SSW visible
18 Nov 6.7 17:12:33 10° SSE 17:16:11 83° WSW 17:19:54 10° NNW visible
19 Nov 6.8 06:08:27 10° NNE 06:12:12 76° ESE 06:15:52 10° S visible
19 Nov 10.0 18:22:27 10° SW 18:24:31 14° W 18:26:37 10° NW visible
20 Nov 8.3 05:43:15 10° NNE 05:46:44 37° E 05:50:10 10° SSE visible
20 Nov 9.0 17:55:48 10° SSW 17:58:56 26° W 18:02:06 10° NW visible
21 Nov 9.5 05:18:23 10° NE 05:21:11 20° E 05:23:57 10° SE visible
21 Nov 7.3 06:51:17 10° N 06:54:41 34° WNW 06:58:02 10° SW visible
21 Nov 7.6 17:29:50 10° S 17:33:25 51° W 17:37:03 10° NNW visible
22 Nov 10.2 04:54:35 10° ENE 04:55:32 11° E 04:56:29 10° ESE visible
22 Nov 6.5 06:25:41 10° N 06:29:23 67° WNW 06:33:00 10° SSW visible
22 Nov 6.6 17:04:19 10° SSE 17:07:59 79° ENE 17:11:44 10° N visible
23 Nov 7.2 06:00:18 10° NNE 06:03:59 60° E 06:07:35 10° S visible
23 Nov 9.8 18:13:42 10° SW 18:16:14 18° W 18:18:48 10° NW visible
24 Nov 8.7 05:35:10 10° NNE 05:38:29 30° E 05:41:44 10° SSE visible
24 Nov 8.6 17:47:19 10° SSW 17:50:39 32° W 17:54:03 10° NNW visible
